Flag for Belgium Weather past 2 weeks in Eupen, Belgium

Now
58 °F

Low clouds.


Feels Like: 58 °F
Forecast: 51 / 60 °F
Wind: 5 mph from Southwest

Location: Spa / La Sauveniere

Current Time: Aug 30, 2014 at 10:32:46 PM

Latest Report: Aug 30, 2014 at 9:00 PM


Visibility: N/A

Pressure: 30.03 "Hg

Humidity: 94%

Dew point: 56 °F

Location of EupenLocation

Historic Weather in Eupen — Graph

°F

Eupen temperature yesterday

Maximum temperature yesterday: 62 °F (at 6:00 PM)
Minimum temperature yesterday: 54 °F (at 5:00 AM)
Average temperature yesterday: 58 °F

Past Weeks' High & Low Weather Summary

 TemperatureHumidityPressure
High65 °F (Aug 28, 6:00 PM)100% (Aug 16, 12:00 AM)30.16 "Hg (Aug 16, 12:00 AM)
Low44 °F (Aug 20, 6:00 AM)52% (Aug 18, 3:00 PM)29.62 "Hg (Aug 26, 5:00 AM)
Average54 °F85%29.98 "Hg
* Reported Aug 15 9:00 PM — Aug 30 9:00 PM, Eupen, Weather by CustomWeather, © 2014

Note: Actual official high and low records may vary slightly from our data, if they occured in-between our weather recording intervals... More about our weather records

Advertising

Eupen weather history for previous 24 hours

 ConditionsComfort  
Time TempWeatherWind HumidityBarometerVisibility
9:00 PM
Aug 30
58 °FLow clouds.5 mph94%30.03 "HgN/A
8:00 PM58 °FOvercast.5 mph92%30.03 "Hg7 mi
7:00 PM59 °FOvercast.3 mph92%30.03 "Hg9 mi
6:00 PM58 °FOvercast.5 mph92%30.05 "Hg8 mi
5:00 PM58 °FOvercast.6 mph92%30.05 "Hg6 mi
4:00 PM57 °FLow clouds.6 mph95%30.07 "Hg7 mi
3:00 PM58 °FLight rain. Overcast.5 mph92%30.08 "Hg9 mi
2:00 PM57 °FRain. Overcast.3 mph90%30.08 "Hg12 mi
1:00 PM58 °FLight rain. Overcast.6 mph80%30.08 "Hg13 mi
12:00 PM58 °FLight rain. Overcast.5 mph83%30.08 "Hg14 mi
11:00 AM59 °FOvercast.6 mph77%30.07 "Hg8 mi
10:00 AM58 °FOvercast.5 mph84%30.07 "Hg11 mi
9:00 AM57 °FOvercast.6 mph84%30.08 "Hg9 mi
8:00 AM56 °FOvercast.5 mph86%30.07 "Hg10 mi
7:00 AM55 °FOvercast.5 mph87%30.06 "Hg9 mi
6:00 AM55 °FOvercast.6 mph86%30.07 "Hg9 mi
5:00 AM55 °FOvercast.6 mph86%30.07 "Hg11 mi
4:00 AM56 °FClear.3 mph87%30.08 "Hg7 mi
3:00 AM54 °FOvercast.3 mph92%30.09 "Hg8 mi
2:00 AM54 °FClear.3 mph94%30.09 "Hg7 mi
1:00 AM54 °FClear.2 mph91%30.09 "Hg8 mi
12:00 AM55 °FOvercast.2 mph94%30.09 "Hg7 mi
11:00 PM
Aug 29
58 °FOvercast.3 mph81%30.07 "Hg7 mi
Weather by CustomWeather, © 2014

See weather overviewHow to use our weather pages